| time (UTC) | temp F | wind direction | speed MPH | gust MPH | rain 1hr in | rain 24hr in | rain mn in | humidity % | barometer mb |
| 20260505101503 | 76 | 259 | 2.0 | 4.0 | 0.00 | 0.00 | 0.00 | 35 | 1010.0 |
| 20260505100002 | 76 | 105 | 0.0 | 2.0 | 0.00 | 0.00 | 0.00 | 36 | 1009.0 |
| 20260505094502 | 78 | 139 | 2.0 | 3.0 | 0.00 | 0.00 | 0.00 | 35 | 1010.0 |
| 20260505093002 | 77 | 124 | 0.0 | 2.0 | 0.00 | 0.00 | 0.00 | 36 | 1010.0 |
| 20260505091502 | 75 | 242 | 1.0 | 2.0 | 0.00 | 0.00 | 0.00 | 38 | 1010.0 |
| 20260505090003 | 74 | 61 | 0.0 | 2.0 | 0.00 | 0.00 | 0.00 | 40 | 1010.0 |
| 20260505084502 | 72 | 56 | 2.0 | 4.0 | 0.00 | 0.00 | 0.00 | 42 | 1010.0 |
| 20260505083002 | 73 | 40 | 1.0 | 2.0 | 0.00 | 0.00 | 0.00 | 41 | 1010.0 |
| 20260505081502 | 70 | 193 | 0.0 | 1.0 | 0.00 | 0.00 | 0.00 | 44 | 1010.0 |
| 20260505080002 | 69 | 144 | 0.0 | 1.0 | 0.00 | 0.00 | 0.00 | 43 | 1010.0 |
| 20260505074501 | 67 | 140 | 3.0 | 4.0 | 0.00 | 0.00 | 0.00 | 47 | 1011.0 |
| 20260505073003 | 68 | 9 | 1.0 | 2.0 | 0.00 | 0.00 | 0.00 | 46 | 1011.0 |
| 20260505071501 | 65 | 145 | 3.0 | 3.0 | 0.00 | 0.00 | 0.00 | 49 | 1011.0 |
| 20260505070003 | 64 | 44 | 0.0 | 4.0 | 0.00 | 0.00 | 0.00 | 50 | 1011.0 |
| 20260505064506 | 63 | 150 | 1.0 | 3.0 | 0.00 | 0.00 | 0.00 | 52 | 1011.0 |
| 20260505063002 | 63 | 12 | 0.0 | 1.0 | 0.00 | 0.00 | 0.00 | 54 | 1011.0 |
| 20260505061502 | 61 | 81 | 1.0 | 1.0 | 0.00 | 0.00 | 0.00 | 56 | 1011.0 |
| 20260505060002 | 58 | 16 | 0.0 | 1.0 | 0.00 | 0.00 | 0.00 | 64 | 1011.0 |
| 20260505054501 | 57 | 18 | 1.0 | 2.0 | 0.00 | 0.00 | 0.00 | 67 | 1011.0 |
| 20260505053002 | 55 | 10 | 1.0 | 2.0 | 0.00 | 0.00 | 0.00 | 72 | 1012.0 |
| 20260505051502 | 52 | 2 | 0.0 | 0.0 | 0.00 | 0.00 | 0.00 | 76 | 1012.0 |
| 20260505041502 | 49 | 2 | 0.0 | 0.0 | 0.00 | 0.00 | 0.00 | 83 | 1011.0 |
| 20260505040002 | 49 | 2 | 0.0 | 1.0 | 0.00 | 0.00 | 0.00 | 82 | 1011.0 |
| 20260505034502 | 50 | 2 | 0.0 | 0.0 | 0.00 | 0.00 | 0.00 | 82 | 1012.0 |
| 20260505033002 | 50 | 351 | 0.0 | 0.0 | 0.00 | 0.00 | 0.00 | 80 | 1012.0 |
| 20260505031501 | 51 | 350 | 0.0 | 1.0 | 0.00 | 0.00 | 0.00 | 80 | 1012.0 |
| 20260505030002 | 51 | 351 | 0.0 | 0.0 | 0.00 | 0.00 | 0.00 | 78 | 1011.0 |
| 20260505024502 | 52 | 350 | 0.0 | 0.0 | 0.00 | 0.00 | 0.00 | 74 | 1011.0 |
| 20260505023002 | 53 | 346 | 0.0 | 1.0 | 0.00 | 0.00 | 0.00 | 73 | 1012.0 |
| 20260505021503 | 52 | 351 | 1.0 | 1.0 | 0.00 | 0.00 | 0.00 | 74 | 1012.0 |
| 20260505020003 | 52 | 34 | 0.0 | 0.0 | 0.00 | 0.00 | 0.00 | 76 | 1011.0 |
| 20260505014502 | 53 | 31 | 1.0 | 1.0 | 0.00 | 0.00 | 0.00 | 73 | 1012.0 |
| 20260505013002 | 53 | 31 | 0.0 | 1.0 | 0.00 | 0.00 | 0.00 | 72 | 1012.0 |
| 20260505011502 | 53 | 31 | 0.0 | 0.0 | 0.00 | 0.00 | 0.00 | 72 | 1012.0 |
| 20260505010001 | 54 | 31 | 0.0 | 0.0 | 0.00 | 0.00 | 0.00 | 68 | 1012.0 |
| 20260505004502 | 55 | 32 | 1.0 | 2.0 | 0.00 | 0.00 | 0.00 | 64 | 1012.0 |
| 20260505003002 | 56 | 31 | 0.0 | 1.0 | 0.00 | 0.00 | 0.00 | 62 | 1012.0 |
| 20260505001502 | 56 | 48 | 1.0 | 1.0 | 0.00 | 0.00 | 0.00 | 65 | 1012.0 |
| 20260505000002 | 55 | 90 | 0.0 | 0.0 | 0.00 | 0.00 | 0.00 | 70 | 1013.0 |
| 20260504234502 | 55 | 72 | 1.0 | 1.0 | 0.00 | 0.00 | 0.00 | 74 | 1013.0 |
| 20260504233002 | 57 | 75 | 0.0 | 0.0 | 0.00 | 0.00 | 0.00 | 70 | 1013.0 |
| 20260504231502 | 57 | 105 | 0.0 | 0.0 | 0.00 | 0.00 | 0.00 | 70 | 1013.0 |
| 20260504230001 | 58 | 101 | 2.0 | 2.0 | 0.00 | 0.00 | 0.00 | 68 | 1013.0 |
| 20260504224502 | 59 | 350 | 0.0 | 1.0 | 0.00 | 0.00 | 0.00 | 67 | 1013.0 |
| 20260504223002 | 59 | 32 | 2.0 | 2.0 | 0.00 | 0.00 | 0.00 | 63 | 1013.0 |
| 20260504221503 | 60 | 354 | 0.0 | 1.0 | 0.00 | 0.00 | 0.00 | 63 | 1014.0 |
| 20260504220003 | 60 | 37 | 1.0 | 2.0 | 0.00 | 0.00 | 0.00 | 64 | 1013.0 |
| 20260504214502 | 60 | 47 | 0.0 | 1.0 | 0.00 | 0.00 | 0.00 | 63 | 1013.0 |
| 20260504213002 | 60 | 47 | 0.0 | 0.0 | 0.00 | 0.00 | 0.00 | 59 | 1013.0 |
| 20260504211502 | 62 | 48 | 0.0 | 1.0 | 0.00 | 0.00 | 0.00 | 55 | 1014.0 |
| 20260504210002 | 62 | 359 | 0.0 | 1.0 | 0.00 | 0.00 | 0.00 | 55 | 1014.0 |
| 20260504204502 | 62 | 68 | 0.0 | 1.0 | 0.00 | 0.00 | 0.00 | 53 | 1014.0 |
| 20260504203003 | 63 | 76 | 0.0 | 2.0 | 0.00 | 0.00 | 0.00 | 49 | 1014.0 |
| 20260504201502 | 63 | 22 | 0.0 | 1.0 | 0.00 | 0.00 | 0.00 | 52 | 1013.0 |
| 20260504200003 | 64 | 355 | 0.0 | 1.0 | 0.00 | 0.00 | 0.00 | 52 | 1014.0 |
| 20260504194502 | 64 | 98 | 0.0 | 0.0 | 0.00 | 0.00 | 0.00 | 50 | 1013.0 |
| 20260504193003 | 64 | 47 | 0.0 | 0.0 | 0.00 | 0.00 | 0.00 | 53 | 1013.0 |
| 20260504191502 | 65 | 74 | 0.0 | 1.0 | 0.00 | 0.00 | 0.00 | 53 | 1014.0 |
| 20260504190002 | 66 | 113 | 0.0 | 0.0 | 0.00 | 0.00 | 0.00 | 53 | 1014.0 |
| 20260504184502 | 67 | 104 | 0.0 | 0.0 | 0.00 | 0.00 | 0.00 | 52 | 1013.0 |
| 20260504183002 | 68 | 104 | 0.0 | 0.0 | 0.00 | 0.00 | 0.00 | 50 | 1013.0 |
| 20260504181502 | 70 | 117 | 0.0 | 1.0 | 0.00 | 0.00 | 0.00 | 48 | 1013.0 |
| 20260504180002 | 71 | 138 | 0.0 | 1.0 | 0.00 | 0.00 | 0.00 | 46 | 1013.0 |
| 20260504174502 | 72 | 112 | 0.0 | 1.0 | 0.00 | 0.00 | 0.00 | 45 | 1013.0 |
| 20260504173002 | 73 | 104 | 0.0 | 1.0 | 0.00 | 0.00 | 0.00 | 42 | 1013.0 |
| 20260504171502 | 73 | 63 | 1.0 | 2.0 | 0.00 | 0.00 | 0.00 | 41 | 1013.0 |